This demonstration page uses our WeatherBlox Daily Observations layout. Learn more.

Left ArrowRight Arrow

38.88101, -77.10428

Hourly Observations for May 17, 2016

Temp ( °F °C ) Dew Point ( °F °C ) Humidity (%) Winds ( mph kmh ) Pressure ( in mb ) Visibility ( mi km ) Precip ( " mm )
12:52 am 00:52 Mostly Cloudy 58 14.4 41 5 53 53 S 8 13 30.22 1023 10 16 N/A
1:52 am 01:52 Cloudy 57 13.9 44 6.7 62 62 S 10 17 30.22 1023 10 16 N/A
2:52 am 02:52 Cloudy 57 13.9 46 7.8 67 67 S 7 11 30.20 1023 10 16 N/A
3:52 am 03:52 Cloudy 56 13.3 48 8.9 75 75 SSW 3 6 30.20 1023 10 16 N/A
4:52 am 04:52 Cloudy 56 13.3 48 8.9 75 75 SSW 5 7 30.20 1023 10 16 N/A
5:52 am 05:52 Cloudy 57 13.9 48 8.9 72 72 S 5 7 30.20 1023 10 16 N/A
6:52 am 06:52 Cloudy 57 13.9 48 8.9 72 72 SSW 5 7 30.23 1024 10 16 N/A
7:52 am 07:52 Cloudy with Light Rain 58 14.4 44 6.7 60 60 W 6 9 30.25 1025 10 16 N/A
8:52 am 08:52 Cloudy with Light Rain 56 13.3 48 8.9 75 75 N 8 13 30.26 1025 9 14 0.01 0.25
9:52 am 09:52 Cloudy with Light Rain 56 13.3 50 10 81 81 N 7 11 30.24 1024 10 16 0.04 1.02
10:32 am 10:32 Cloudy with Light Rain 55 13 52 11 88 88 N 9 15 30.24 1024 5 8 N/A
10:52 am 10:52 Cloudy with Light Rain 55 12.8 52 11.1 90 90 NNW 3 6 30.24 1024 6 10 0.05 1.27
11:52 am 11:52 Cloudy with Light Rain 55 12.8 51 10.6 87 87 N N/A 30.25 1024 5 8 0.05 1.27
12:16 pm 12:16 Cloudy with Light Rain 55 13 50 10 82 82 undefined N/A 30.24 1024 5 8 N/A
12:52 pm 12:52 Cloudy with Light Rain 55 12.8 51 10.6 87 87 NNE 5 7 30.23 1024 6 10 0.10 2.54
1:52 pm 13:52 Cloudy with Light Rain 55 12.8 50 10 83 83 N 6 9 30.22 1023 7 11 0.04 1.02
2:11 pm 14:11 Cloudy with Light Rain 55 12.8 51 10.6 87 87 N 6 9 30.21 1023 7 11 0.01 0.25
2:17 pm 14:17 Cloudy with Light Rain 55 12.8 51 10.6 87 87 N 6 9 30.21 1023 6 10 0.01 0.25
2:22 pm 14:22 Cloudy with Light Rain 54 12 52 11 94 94 NNE 7 11 30.21 1023 7 11 N/A
2:33 pm 14:33 Cloudy with Light Rain 54 12.2 51 10.6 90 90 N 6 9 30.21 1023 8 13 0.03 0.76
2:52 pm 14:52 Cloudy with Light Rain 55 12.8 51 10.6 87 87 N 5 7 30.21 1023 7 11 0.04 1.02
3:33 pm 15:33 Cloudy with Light Rain 55 12.8 51 10.6 87 87 NNW 6 9 30.21 1023 6 10 0.04 1.02
3:40 pm 15:40 Cloudy with Light Rain 55 13 52 11 88 88 NNW 6 9 30.21 1023 6 10 N/A
3:52 pm 15:52 Cloudy with Light Rain 55 12.8 51 10.6 87 87 N 6 9 30.19 1022 6 10 0.05 1.27
4:03 pm 16:03 Cloudy with Light Rain 55 13 52 11 88 88 NNE 6 9 30.18 1022 7 11 N/A
4:11 pm 16:11 Cloudy with Light Rain 55 12.8 51 10.6 87 87 NNE 6 9 30.18 1022 10 16 0.02 0.51
4:45 pm 16:45 Cloudy with Light Rain 55 12.8 51 10.6 87 87 NNE 5 7 30.18 1022 10 16 0.03 0.76
4:52 pm 16:52 Cloudy with Light Rain 55 12.8 51 10.6 87 87 NNE 5 7 30.18 1022 10 16 0.03 0.76
5:26 pm 17:26 Cloudy with Light Rain 56 13.3 51 10.6 84 84 NE 3 6 30.18 1022 10 16 N/A
5:42 pm 17:42 Cloudy with Light Rain 55 13 52 11 88 88 ENE 3 6 30.18 1022 10 16 N/A
5:52 pm 17:52 Cloudy with Light Rain 56 13.3 51 10.6 84 84 N N/A 30.16 1022 10 16 N/A
6:01 pm 18:01 Cloudy with Light Rain 56 13.3 52 11.1 87 87 N 6 9 30.15 1021 10 16 N/A
6:11 pm 18:11 Cloudy with Light Rain 56 13.3 51 10.6 84 84 NNE 6 9 30.15 1021 10 16 N/A
6:19 pm 18:19 Cloudy 56 13.3 51 10.6 84 84 NNE 6 9 30.15 1021 10 16 N/A
6:52 pm 18:52 Cloudy 56 13.3 52 11.1 87 87 ENE 7 11 30.16 1021 10 16 N/A
7:42 pm 19:42 Cloudy with Light Rain 55 13 52 11 88 88 E 5 7 30.15 1021 10 16 N/A
7:52 pm 19:52 Cloudy with Light Rain 56 13.3 51 10.6 84 84 E 5 7 30.16 1021 10 16 N/A
8:21 pm 20:21 Cloudy with Light Rain 55 12.8 52 11.1 90 90 E 5 7 30.15 1021 10 16 N/A
8:47 pm 20:47 Cloudy 55 13 52 11 88 88 N N/A 30.18 1022 10 16 N/A
8:52 pm 20:52 Cloudy with Light Rain 55 12.8 51 10.6 87 87 E 3 6 30.17 1022 10 16 N/A
9:52 pm 21:52 Cloudy 55 12.8 51 10.6 87 87 N N/A 30.17 1022 10 16 N/A
10:06 pm 22:06 Cloudy 55 13 52 11 88 88 N N/A 30.15 1021 10 16 N/A
10:41 pm 22:41 Cloudy 55 12.8 51 10.6 87 87 SSE 3 6 30.18 1022 10 16 N/A
10:52 pm 22:52 Cloudy 55 12.8 51 10.6 87 87 SE 3 6 30.17 1022 10 16 N/A
11:52 pm 23:52 Cloudy 56 13.3 51 10.6 84 84 N N/A 30.16 1021 10 16 N/A

Powered by AerisWeather